Location: Lango�lan
(48.1202°N, 3.2340°W)
Time: 10:49:57
(UTC+00:00)

Cosmos 1892 Rocket - Pass Details

Date: 23 October 2019
Orbit: 605 x 634 km, 82.5° (Epoch: 12 November)

Event Time Altitude Azimuth Distance (km) Brightness Sun altitude
Rises 04:58:26 0° 195° (SSW) 2,896 6.8 -18.2°
Reaches altitude 10° 05:00:40 10° 197° (SSW) 1,989 6.0 -17.8°
Maximum altitude 05:05:04 68° 281° (W) 671 3.4 -17.1°
Drops below altitude 10° 05:09:27 10° 5° (N) 1,987 6.2 -16.4°
Sets 05:11:41 0° 8° (N) 2,893 7.1 -16.0°
